Regional Weather Roundup
Issued by NWS New Orleans/Baton Rouge, LA

Home | Current Version | Previous Version | Text Only | Print | Product List | Glossary On
Versions: 1 2 3 4 5 6 7 8 9 10 11 12 13 14 15 16 17 18 19 20 21 22 23 24 25 26 27 28 29 30 31 32 33 34 35 36 37 38 39 40 41 42 43 44 45 46 47 48 49 50
686
ASUS44 KLIX 202301
RWRLIX
NEW ORLEANS REGIONAL WEATHER ROUNDUP
NATIONAL WEATHER SERVICE NEW ORLEANS LA
600 PM CDT SAT SEP 20 2014

NOTE: "FAIR" INDICATES FEW OR NO CLOUDS BELOW 12,000 FEET WITH NO
      SIGNIFICANT WEATHER AND/OR OBSTRUCTIONS TO VISIBILITY.
      SKY/WX - SKY CONDITION AND SIGNIFICANT WEATHER.
      TMP - AIR TEMPERATURE.     DP    - DEWPOINT TEMPERATURE.
      RH  - RELATIVE HUMIDITY.   PRES  - PRESSURE.
      HI  - HEAT INDEX.          WCI   - WIND CHILL INDEX.

*  THESE STATIONS ARE NOT NWS OR FAA STATIONS AND ARE NOT UNDER
   NWS QUALITY CONTROL.

LAZ038-040-048-061>063-065>067-069-210000-
SOUTHEAST LOUISIANA

CITY           SKY/WX    TMP DP  RH WIND       PRES   REMARKS
N.O. AUDUBON   NOT AVBL
N.O. INTL ARPT MOSUNNY   86  67  52 E8        29.93R
N.O. LAKEFRONT SUNNY     83  70  64 E14       29.93S
N.O. DOWNTOWN*   N/A     84  64  51 E7        29.93S
SLIDELL        SUNNY     85  70  60 SE6       29.93S
BATON ROUGE    SUNNY     86  68  54 NE7       29.93F
BOOTHVILLE     MOSUNNY   82  71  69 E15G22    29.93S
BELLE CHASSE   MOSUNNY   84  67  56 E9        29.92S
BOGALUSA*        N/A     87  66  49 NE5       29.95S
GALLIANO*      NOT AVBL
NEW ROADS*       N/A     86  67  53 NE5       29.94S
GONZALES*        N/A     86  70  58 NE3       29.92S
HAMMOND*       NOT AVBL
HOUMA*         MOSUNNY   84  46  26 NE10      29.93S
PORT FOURCHON* CLEAR     84  72  65 E14G23    29.95R

$$

MSZ070-080>082-210000-
SOUTHERN MISSISSIPPI

CITY           SKY/WX    TMP DP  RH WIND       PRES   REMARKS
MCCOMB         SUNNY     85  65  51 E5        29.96S
GULFPORT       SUNNY     85  65  51 NE8       29.93S
BILOXI         SUNNY     85  67  54 E12       29.94R
PASCAGOULA     SUNNY     82  68  62 E7        29.95S

$$

COASTAL OBSERVATIONS
LAKE AND NEARSHORE STATIONS

STATION/POSITION TIME  TEMP    WIND        PRES    WAVE
                       AIR SEA DIR/SP/G            HT/PER
                 (UTC) (F)     (DEG/KT/KT) (MB)    (FT/S)
PASCAGOULA       2200   83      50/ 12/ 15 1013.5
WAVELAND YACHT   2200   82     130/ 10/ 13 1013.0
GRAND ISLE       2200   83 83   80/ 15/ 18 1013.7
SOUTHWEST PASS   2200   85 90   70/ 22/ 25 1013.2
NEW CANAL        2200   85 82  110/  2/  7 1013.8
SHELL BEACH      2200   82 79   80/ 13/ 16 1013.3

OFFSHORE STATIONS

STATION/POSITION TIME  TEMP    WIND        PRES    WAVE
                       AIR SEA DIR/SP/G            HT/PER
                 (UTC) (F)     (DEG/KT/KT) (MB)    (FT/S)
64 S DAUPHIN ISL 2203   80 84   70/ 17/ 21 1013.9    5/ 6

$$




USA.gov is the U.S. government's official web portal to all federal, state and local government web resources and services.